| time (UTC) | temp F | wind direction | speed MPH | gust MPH | rain 1hr in | rain 24hr in | rain mn in | humidity % | barometer mb |
| 20260905200003 | 69 | 139 | 0.0 | 2.0 | 0.00 | 0.00 | 0.00 | 58 | |
| 20260905195503 | 69 | 143 | 0.0 | 2.0 | 0.00 | 0.00 | 0.00 | 57 | |
| 20260905195004 | 69 | 141 | 0.0 | 2.0 | 0.00 | 0.00 | 0.00 | 56 | |
| 20260905194503 | 70 | 135 | 0.0 | 1.0 | 0.00 | 0.00 | 0.00 | 55 | |
| 20260905194003 | 70 | 142 | 0.0 | 2.0 | 0.00 | 0.00 | 0.00 | 55 | |
| 20260905193503 | 70 | 139 | 0.0 | 2.0 | 0.00 | 0.00 | 0.00 | 54 | |
| 20260905193003 | 70 | 135 | 0.0 | 2.0 | 0.00 | 0.00 | 0.00 | 54 | |
| 20260905192503 | 71 | 180 | 0.0 | 1.0 | 0.00 | 0.00 | 0.00 | 53 | |
| 20260905192003 | 71 | 148 | 0.0 | 2.0 | 0.00 | 0.00 | 0.00 | 52 | |
| 20260905191503 | 71 | 137 | 0.0 | 2.0 | 0.00 | 0.00 | 0.00 | 52 | |
| 20260905191003 | 71 | 135 | 0.0 | 2.0 | 0.00 | 0.00 | 0.00 | 51 | |
| 20260905190503 | 71 | 135 | 0.0 | 1.0 | 0.00 | 0.00 | 0.00 | 50 | |
| 20260905190003 | 71 | 185 | 0.0 | 2.0 | 0.00 | 0.00 | 0.00 | 50 | |
| 20260905185503 | 72 | 161 | 0.0 | 2.0 | 0.00 | 0.00 | 0.00 | 50 | |
| 20260905185003 | 72 | 153 | 0.0 | 2.0 | 0.00 | 0.00 | 0.00 | 50 | |
| 20260905184503 | 72 | 0 | 0.0 | 0.0 | 0.00 | 0.00 | 0.00 | 47 | |
| 20260905184003 | 72 | 315 | 0.0 | 1.0 | 0.00 | 0.00 | 0.00 | 46 | |
| 20260905183503 | 72 | 315 | 0.0 | 1.0 | 0.00 | 0.00 | 0.00 | 46 | |
| 20260905183003 | 73 | 315 | 0.0 | 1.0 | 0.00 | 0.00 | 0.00 | 44 | |
| 20260905182503 | 73 | 315 | 0.0 | 1.0 | 0.00 | 0.00 | 0.00 | 44 | |
| 20260905182003 | 73 | 243 | 0.0 | 1.0 | 0.00 | 0.00 | 0.00 | 43 | |
| 20260905181503 | 74 | 293 | 0.0 | 2.0 | 0.00 | 0.00 | 0.00 | 43 | |
| 20260905181003 | 74 | 311 | 0.0 | 2.0 | 0.00 | 0.00 | 0.00 | 43 | |
| 20260905180503 | 74 | 315 | 0.0 | 2.0 | 0.00 | 0.00 | 0.00 | 41 | |
| 20260905180003 | 74 | 197 | 0.0 | 2.0 | 0.00 | 0.00 | 0.00 | 41 | |
| 20260905175503 | 75 | 257 | 0.0 | 2.0 | 0.00 | 0.00 | 0.00 | 41 | |
| 20260905175003 | 75 | 256 | 0.0 | 2.0 | 0.00 | 0.00 | 0.00 | 41 | |
| 20260905174503 | 75 | 251 | 0.0 | 2.0 | 0.00 | 0.00 | 0.00 | 40 | |
| 20260905174003 | 75 | 251 | 0.0 | 5.0 | 0.00 | 0.00 | 0.00 | 40 | |
| 20260905173503 | 75 | 250 | 1.0 | 5.0 | 0.00 | 0.00 | 0.00 | 39 | |
| 20260905173003 | 76 | 234 | 2.0 | 5.0 | 0.00 | 0.00 | 0.00 | 38 | |
| 20260905172503 | 76 | 209 | 1.0 | 4.0 | 0.00 | 0.00 | 0.00 | 38 | |
| 20260905172003 | 76 | 221 | 0.0 | 5.0 | 0.00 | 0.00 | 0.00 | 38 | |
| 20260905171503 | 76 | 233 | 1.0 | 5.0 | 0.00 | 0.00 | 0.00 | 38 | |
| 20260905171003 | 76 | 208 | 2.0 | 5.0 | 0.00 | 0.00 | 0.00 | 37 | |
| 20260905170503 | 77 | 219 | 1.0 | 4.0 | 0.00 | 0.00 | 0.00 | 36 | |
| 20260905170003 | 77 | 285 | 1.0 | 8.0 | 0.00 | 0.00 | 0.00 | 36 | |
| 20260905165503 | 77 | 279 | 1.0 | 8.0 | 0.00 | 0.00 | 0.00 | 35 | |
| 20260905165003 | 77 | 256 | 2.0 | 4.0 | 0.00 | 0.00 | 0.00 | 36 | |
| 20260905164503 | 78 | 264 | 2.0 | 4.0 | 0.00 | 0.00 | 0.00 | 36 | |
| 20260905164003 | 78 | 269 | 2.0 | 4.0 | 0.00 | 0.00 | 0.00 | 36 | |
| 20260905163503 | 78 | 274 | 2.0 | 6.0 | 0.00 | 0.00 | 0.00 | 35 | |
| 20260905163003 | 78 | 309 | 2.0 | 6.0 | 0.00 | 0.00 | 0.00 | 34 | |
| 20260905162503 | 79 | 291 | 3.0 | 7.0 | 0.00 | 0.00 | 0.00 | 32 | |
| 20260905162003 | 80 | 271 | 2.0 | 7.0 | 0.00 | 0.00 | 0.00 | 33 | |
| 20260905161503 | 81 | 291 | 1.0 | 6.0 | 0.00 | 0.00 | 0.00 | 32 | |
| 20260905161003 | 82 | 303 | 2.0 | 4.0 | 0.00 | 0.00 | 0.00 | 33 | |
| 20260905160503 | 80 | 297 | 1.0 | 4.0 | 0.00 | 0.00 | 0.00 | 36 | |
| 20260905160003 | 80 | 293 | 1.0 | 4.0 | 0.00 | 0.00 | 0.00 | 36 | |
| 20260905155503 | 79 | 301 | 2.0 | 6.0 | 0.00 | 0.00 | 0.00 | 36 | |
| 20260905155003 | 79 | 282 | 2.0 | 6.0 | 0.00 | 0.00 | 0.00 | 35 | |
| 20260905154503 | 79 | 267 | 3.0 | 6.0 | 0.00 | 0.00 | 0.00 | 36 | |
| 20260905154003 | 78 | 272 | 2.0 | 5.0 | 0.00 | 0.00 | 0.00 | 37 | |
| 20260905153503 | 78 | 286 | 1.0 | 8.0 | 0.00 | 0.00 | 0.00 | 39 | |
| 20260905153003 | 77 | 279 | 2.0 | 8.0 | 0.00 | 0.00 | 0.00 | 39 | |
| 20260905152503 | 77 | 257 | 1.0 | 7.0 | 0.00 | 0.00 | 0.00 | 38 | |
| 20260905152003 | 77 | 292 | 0.0 | 5.0 | 0.00 | 0.00 | 0.00 | 38 | |
| 20260905151503 | 77 | 319 | 2.0 | 5.0 | 0.00 | 0.00 | 0.00 | 39 | |
| 20260905151003 | 77 | 312 | 2.0 | 5.0 | 0.00 | 0.00 | 0.00 | 38 | |
| 20260905150503 | 77 | 313 | 3.0 | 8.0 | 0.00 | 0.00 | 0.00 | 38 | |
| 20260905150003 | 77 | 301 | 3.0 | 8.0 | 0.00 | 0.00 | 0.00 | 38 | |
| 20260905145503 | 77 | 260 | 2.0 | 7.0 | 0.00 | 0.00 | 0.00 | 37 | |
| 20260905145003 | 77 | 270 | 1.0 | 4.0 | 0.00 | 0.00 | 0.00 | 38 | |
| 20260905144503 | 77 | 278 | 0.0 | 6.0 | 0.00 | 0.00 | 0.00 | 38 | |
| 20260905144003 | 77 | 260 | 2.0 | 6.0 | 0.00 | 0.00 | 0.00 | 38 | |
| 20260905143503 | 78 | 157 | 2.0 | 4.0 | 0.00 | 0.00 | 0.00 | 38 | |
| 20260905143003 | 77 | 158 | 1.0 | 3.0 | 0.00 | 0.00 | 0.00 | 40 | |
| 20260905142503 | 77 | 184 | 0.0 | 2.0 | 0.00 | 0.00 | 0.00 | 41 | |
| 20260905142003 | 77 | 235 | 0.0 | 2.0 | 0.00 | 0.00 | 0.00 | 42 | |
| 20260905141503 | 77 | 267 | 0.0 | 2.0 | 0.00 | 0.00 | 0.00 | 43 | |
| 20260905141003 | 76 | 270 | 0.0 | 2.0 | 0.00 | 0.00 | 0.00 | 43 | |
| 20260905140503 | 76 | 270 | 1.0 | 2.0 | 0.00 | 0.00 | 0.00 | 43 | |
| 20260905140004 | 76 | 265 | 1.0 | 2.0 | 0.00 | 0.00 | 0.00 | 43 | |
| 20260905135503 | 75 | 203 | 0.0 | 4.0 | 0.00 | 0.00 | 0.00 | 44 | |
| 20260905135003 | 75 | 181 | 0.0 | 4.0 | 0.00 | 0.00 | 0.00 | 44 | |
| 20260905134503 | 75 | 295 | 1.0 | 4.0 | 0.00 | 0.00 | 0.00 | 43 | |
| 20260905134003 | 75 | 266 | 2.0 | 4.0 | 0.00 | 0.00 | 0.00 | 43 | |
| 20260905133503 | 75 | 243 | 1.0 | 3.0 | 0.00 | 0.00 | 0.00 | 43 | |
| 20260905133003 | 75 | 258 | 0.0 | 3.0 | 0.00 | 0.00 | 0.00 | 43 | |
| 20260905132503 | 75 | 252 | 0.0 | 3.0 | 0.00 | 0.00 | 0.00 | 43 | |
| 20260905132003 | 75 | 242 | 0.0 | 5.0 | 0.00 | 0.00 | 0.00 | 42 | |
| 20260905131503 | 75 | 260 | 2.0 | 5.0 | 0.00 | 0.00 | 0.00 | 42 | |
| 20260905131003 | 76 | 315 | 1.0 | 4.0 | 0.00 | 0.00 | 0.00 | 41 | |
| 20260905130503 | 76 | 309 | 0.0 | 4.0 | 0.00 | 0.00 | 0.00 | 41 | |
| 20260905130003 | 76 | 233 | 0.0 | 4.0 | 0.00 | 0.00 | 0.00 | 41 | |
| 20260905125503 | 76 | 308 | 2.0 | 6.0 | 0.00 | 0.00 | 0.00 | 41 | |
| 20260905125003 | 76 | 329 | 2.0 | 6.0 | 0.00 | 0.00 | 0.00 | 41 | |
| 20260905124503 | 77 | 344 | 2.0 | 4.0 | 0.00 | 0.00 | 0.00 | 41 | |
| 20260905124003 | 77 | 48 | 0.0 | 5.0 | 0.00 | 0.00 | 0.00 | 40 | |
| 20260905123503 | 77 | 234 | 1.0 | 5.0 | 0.00 | 0.00 | 0.00 | 39 | |
| 20260905123003 | 77 | 290 | 1.0 | 5.0 | 0.00 | 0.00 | 0.00 | 39 | |
| 20260905122503 | 77 | 304 | 2.0 | 5.0 | 0.00 | 0.00 | 0.00 | 40 | |
| 20260905122003 | 76 | 297 | 2.0 | 5.0 | 0.00 | 0.00 | 0.00 | 43 | |
| 20260905121503 | 76 | 318 | 2.0 | 4.0 | 0.00 | 0.00 | 0.00 | 44 | |
| 20260905121003 | 75 | 317 | 2.0 | 4.0 | 0.00 | 0.00 | 0.00 | 45 | |
| 20260905120503 | 76 | 314 | 2.0 | 7.0 | 0.00 | 0.00 | 0.00 | 45 | |
| 20260905120003 | 76 | 217 | 2.0 | 7.0 | 0.00 | 0.00 | 0.00 | 45 | |
| 20260905115503 | 76 | 192 | 1.0 | 4.0 | 0.00 | 0.00 | 0.00 | 47 | |
| 20260905115003 | 75 | 269 | 2.0 | 7.0 | 0.00 | 0.00 | 0.00 | 47 | |
| 20260905114503 | 75 | 282 | 2.0 | 7.0 | 0.00 | 0.00 | 0.00 | 47 | |
| 20260905114003 | 75 | 278 | 1.0 | 6.0 | 0.00 | 0.00 | 0.00 | 49 | |
| 20260905113503 | 75 | 336 | 1.0 | 6.0 | 0.00 | 0.00 | 0.00 | 48 | |
| 20260905113003 | 75 | 254 | 2.0 | 6.0 | 0.00 | 0.00 | 0.00 | 44 | |
| 20260905112503 | 75 | 216 | 2.0 | 7.0 | 0.00 | 0.00 | 0.00 | 41 | |
| 20260905112003 | 75 | 216 | 2.0 | 7.0 | 0.00 | 0.00 | 0.00 | 40 | |
| 20260905111503 | 76 | 264 | 2.0 | 8.0 | 0.00 | 0.00 | 0.00 | 42 | |
| 20260905111003 | 76 | 275 | 3.0 | 8.0 | 0.00 | 0.00 | 0.00 | 45 | |
| 20260905110503 | 76 | 263 | 1.0 | 4.0 | 0.00 | 0.00 | 0.00 | 45 | |
| 20260905110003 | 76 | 279 | 1.0 | 5.0 | 0.00 | 0.00 | 0.00 | 45 | |
| 20260905105503 | 76 | 311 | 0.0 | 6.0 | 0.00 | 0.00 | 0.00 | 45 | |
| 20260905105003 | 76 | 301 | 1.0 | 7.0 | 0.00 | 0.00 | 0.00 | 44 | |
| 20260905104503 | 76 | 284 | 2.0 | 7.0 | 0.00 | 0.00 | 0.00 | 43 | |
| 20260905104003 | 76 | 275 | 2.0 | 7.0 | 0.00 | 0.00 | 0.00 | 43 | |
| 20260905103503 | 77 | 264 | 3.0 | 5.0 | 0.00 | 0.00 | 0.00 | 42 | |
| 20260905103003 | 77 | 258 | 2.0 | 4.0 | 0.00 | 0.00 | 0.00 | 41 | |
| 20260905102503 | 78 | 253 | 1.0 | 4.0 | 0.00 | 0.00 | 0.00 | 40 | |
| 20260905102003 | 78 | 293 | 2.0 | 4.0 | 0.00 | 0.00 | 0.00 | 41 | |
| 20260905101503 | 77 | 252 | 1.0 | 3.0 | 0.00 | 0.00 | 0.00 | 43 | |
| 20260905101003 | 76 | 238 | 1.0 | 3.0 | 0.00 | 0.00 | 0.00 | 44 | |
| 20260905100503 | 76 | 236 | 2.0 | 5.0 | 0.00 | 0.00 | 0.00 | 45 | |
| 20260905100003 | 76 | 250 | 2.0 | 6.0 | 0.00 | 0.00 | 0.00 | 45 | |
| 20260905095503 | 76 | 262 | 2.0 | 6.0 | 0.00 | 0.00 | 0.00 | 44 | |
| 20260905095003 | 76 | 266 | 2.0 | 6.0 | 0.00 | 0.00 | 0.00 | 44 | |
| 20260905094503 | 76 | 295 | 1.0 | 4.0 | 0.00 | 0.00 | 0.00 | 45 | |
| 20260905094003 | 76 | 271 | 1.0 | 5.0 | 0.00 | 0.00 | 0.00 | 46 | |
| 20260905093503 | 75 | 263 | 2.0 | 5.0 | 0.00 | 0.00 | 0.00 | 46 | |
| 20260905093003 | 75 | 276 | 1.0 | 4.0 | 0.00 | 0.00 | 0.00 | 47 | |
| 20260905092503 | 75 | 271 | 2.0 | 5.0 | 0.00 | 0.00 | 0.00 | 47 | |
| 20260905092003 | 75 | 257 | 1.0 | 5.0 | 0.00 | 0.00 | 0.00 | 47 | |
| 20260905091503 | 75 | 218 | 2.0 | 5.0 | 0.00 | 0.00 | 0.00 | 47 | |
| 20260905091003 | 75 | 135 | 0.0 | 4.0 | 0.00 | 0.00 | 0.00 | 47 | |
| 20260905090503 | 75 | 158 | 2.0 | 4.0 | 0.00 | 0.00 | 0.00 | 47 | |
| 20260905090003 | 75 | 263 | 2.0 | 4.0 | 0.00 | 0.00 | 0.00 | 47 | |
| 20260905085503 | 75 | 285 | 2.0 | 4.0 | 0.00 | 0.00 | 0.00 | 47 | |
| 20260905085003 | 75 | 293 | 1.0 | 4.0 | 0.00 | 0.00 | 0.00 | 47 | |
| 20260905084503 | 74 | 276 | 2.0 | 4.0 | 0.00 | 0.00 | 0.00 | 47 | |
| 20260905084003 | 74 | 249 | 2.0 | 4.0 | 0.00 | 0.00 | 0.00 | 47 | |
| 20260905083503 | 74 | 294 | 1.0 | 6.0 | 0.00 | 0.00 | 0.00 | 47 | |
| 20260905083003 | 74 | 291 | 1.0 | 6.0 | 0.00 | 0.00 | 0.00 | 46 | |
| 20260905082503 | 75 | 242 | 1.0 | 3.0 | 0.00 | 0.00 | 0.00 | 46 | |
| 20260905082003 | 75 | 279 | 0.0 | 3.0 | 0.00 | 0.00 | 0.00 | 48 | |
| 20260905081503 | 74 | 296 | 1.0 | 3.0 | 0.00 | 0.00 | 0.00 | 48 | |
| 20260905081003 | 74 | 310 | 0.0 | 2.0 | 0.00 | 0.00 | 0.00 | 49 | |
| 20260905080503 | 73 | 295 | 1.0 | 5.0 | 0.00 | 0.00 | 0.00 | 49 | |
| 20260905080003 | 73 | 273 | 1.0 | 5.0 | 0.00 | 0.00 | 0.00 | 49 | |
| 20260905075503 | 73 | 267 | 1.0 | 4.0 | 0.00 | 0.00 | 0.00 | 49 | |
| 20260905075003 | 73 | 267 | 1.0 | 4.0 | 0.00 | 0.00 | 0.00 | 48 | |
| 20260905074503 | 74 | 261 | 1.0 | 4.0 | 0.00 | 0.00 | 0.00 | 48 | |
| 20260905074003 | 74 | 264 | 0.0 | 3.0 | 0.00 | 0.00 | 0.00 | 48 | |
| 20260905073503 | 73 | 237 | 0.0 | 4.0 | 0.00 | 0.00 | 0.00 | 48 | |
| 20260905073003 | 73 | 250 | 1.0 | 5.0 | 0.00 | 0.00 | 0.00 | 48 | |
| 20260905072503 | 73 | 293 | 1.0 | 5.0 | 0.00 | 0.00 | 0.00 | 48 | |
| 20260905072003 | 73 | 269 | 1.0 | 3.0 | 0.00 | 0.00 | 0.00 | 49 | |
| 20260905071503 | 73 | 221 | 0.0 | 3.0 | 0.00 | 0.00 | 0.00 | 50 | |
| 20260905071003 | 73 | 190 | 1.0 | 3.0 | 0.00 | 0.00 | 0.00 | 50 | |
| 20260905070503 | 72 | 232 | 0.0 | 5.0 | 0.00 | 0.00 | 0.00 | 50 | |
| 20260905070003 | 72 | 240 | 0.0 | 5.0 | 0.00 | 0.00 | 0.00 | 50 | |
| 20260905065503 | 72 | 254 | 1.0 | 4.0 | 0.00 | 0.00 | 0.00 | 50 | |
| 20260905065003 | 72 | 252 | 1.0 | 4.0 | 0.00 | 0.00 | 0.00 | 50 | |
| 20260905064503 | 72 | 261 | 2.0 | 4.0 | 0.00 | 0.00 | 0.00 | 50 | |
| 20260905064003 | 72 | 285 | 1.0 | 4.0 | 0.00 | 0.00 | 0.00 | 50 | |
| 20260905063503 | 72 | 263 | 2.0 | 4.0 | 0.00 | 0.00 | 0.00 | 50 | |
| 20260905063003 | 72 | 225 | 2.0 | 4.0 | 0.00 | 0.00 | 0.00 | 50 | |
| 20260905062503 | 72 | 245 | 2.0 | 4.0 | 0.00 | 0.00 | 0.00 | 50 | |
| 20260905062003 | 72 | 260 | 1.0 | 3.0 | 0.00 | 0.00 | 0.00 | 50 | |
| 20260905061503 | 72 | 276 | 1.0 | 3.0 | 0.00 | 0.00 | 0.00 | 50 | |
| 20260905061003 | 72 | 276 | 1.0 | 3.0 | 0.00 | 0.00 | 0.00 | 50 | |
| 20260905060503 | 72 | 266 | 2.0 | 3.0 | 0.00 | 0.00 | 0.00 | 50 | |
| 20260905060003 | 72 | 248 | 2.0 | 3.0 | 0.00 | 0.00 | 0.00 | 50 | |
| 20260905055503 | 72 | 242 | 0.0 | 4.0 | 0.00 | 0.00 | 0.00 | 50 | |
| 20260905055003 | 72 | 261 | 0.0 | 4.0 | 0.00 | 0.00 | 0.00 | 50 | |
| 20260905054503 | 72 | 257 | 1.0 | 4.0 | 0.00 | 0.00 | 0.00 | 49 | |
| 20260905054003 | 72 | 261 | 2.0 | 4.0 | 0.00 | 0.00 | 0.00 | 49 | |
| 20260905053503 | 72 | 267 | 2.0 | 4.0 | 0.00 | 0.00 | 0.00 | 49 | |
| 20260905053003 | 72 | 268 | 1.0 | 5.0 | 0.00 | 0.00 | 0.00 | 48 | |
| 20260905052503 | 72 | 262 | 2.0 | 5.0 | 0.00 | 0.00 | 0.00 | 48 | |
| 20260905052003 | 72 | 271 | 2.0 | 6.0 | 0.00 | 0.00 | 0.00 | 48 | |
| 20260905051503 | 72 | 274 | 1.0 | 6.0 | 0.00 | 0.00 | 0.00 | 48 | |
| 20260905051003 | 72 | 265 | 2.0 | 4.0 | 0.00 | 0.00 | 0.00 | 48 | |
| 20260905050503 | 72 | 271 | 0.0 | 2.0 | 0.00 | 0.00 | 0.00 | 47 | |
| 20260905050003 | 72 | 265 | 0.0 | 2.0 | 0.00 | 0.00 | 0.00 | 47 | |
| 20260905045503 | 72 | 280 | 2.0 | 3.0 | 0.00 | 0.00 | 0.00 | 47 | |
| 20260905045003 | 72 | 272 | 1.0 | 3.0 | 0.00 | 0.00 | 0.00 | 46 | |
| 20260905044503 | 72 | 190 | 1.0 | 4.0 | 0.00 | 0.00 | 0.00 | 46 | |
| 20260905044003 | 72 | 136 | 1.0 | 4.0 | 0.00 | 0.00 | 0.00 | 46 | |
| 20260905043503 | 72 | 141 | 1.0 | 4.0 | 0.00 | 0.00 | 0.00 | 46 | |
| 20260905043003 | 72 | 131 | 0.0 | 4.0 | 0.00 | 0.00 | 0.00 | 46 | |
| 20260905042503 | 72 | 153 | 0.0 | 4.0 | 0.00 | 0.00 | 0.00 | 45 | |
| 20260905042003 | 72 | 185 | 0.0 | 4.0 | 0.00 | 0.00 | 0.00 | 45 | |
| 20260905041503 | 73 | 213 | 0.0 | 4.0 | 0.00 | 0.00 | 0.00 | 45 | |
| 20260905041003 | 73 | 230 | 1.0 | 4.0 | 0.00 | 0.00 | 0.00 | 45 | |
| 20260905040503 | 73 | 243 | 2.0 | 3.0 | 0.00 | 0.00 | 0.00 | 45 | |
| 20260905040003 | 73 | 256 | 2.0 | 3.0 | 0.00 | 0.00 | 0.00 | 45 | |
| 20260905035503 | 73 | 276 | 1.0 | 3.0 | 0.00 | 0.00 | 0.00 | 45 | |
| 20260905035003 | 73 | 247 | 1.0 | 3.0 | 0.00 | 0.00 | 0.00 | 45 | |
| 20260905034503 | 73 | 227 | 0.0 | 2.0 | 0.00 | 0.00 | 0.00 | 44 | |
| 20260905034003 | 73 | 243 | 1.0 | 3.0 | 0.00 | 0.00 | 0.00 | 44 | |
| 20260905033503 | 73 | 229 | 0.0 | 3.0 | 0.00 | 0.00 | 0.00 | 44 | |
| 20260905033003 | 73 | 243 | 1.0 | 3.0 | 0.00 | 0.00 | 0.00 | 44 | |
| 20260905032503 | 73 | 266 | 0.0 | 4.0 | 0.00 | 0.00 | 0.00 | 43 | |
| 20260905032003 | 73 | 263 | 1.0 | 4.0 | 0.00 | 0.00 | 0.00 | 43 | |
| 20260905031503 | 73 | 252 | 0.0 | 4.0 | 0.00 | 0.00 | 0.00 | 43 | |
| 20260905031003 | 73 | 199 | 2.0 | 4.0 | 0.00 | 0.00 | 0.00 | 43 | |
| 20260905030503 | 73 | 213 | 1.0 | 4.0 | 0.00 | 0.00 | 0.00 | 42 | |
| 20260905030003 | 73 | 264 | 1.0 | 4.0 | 0.00 | 0.00 | 0.00 | 42 | |
| 20260905025503 | 73 | 259 | 1.0 | 4.0 | 0.00 | 0.00 | 0.00 | 42 | |
| 20260905025003 | 73 | 253 | 2.0 | 5.0 | 0.00 | 0.00 | 0.00 | 42 | |
| 20260905024503 | 73 | 262 | 1.0 | 5.0 | 0.00 | 0.00 | 0.00 | 41 | |
| 20260905024003 | 73 | 264 | 1.0 | 4.0 | 0.00 | 0.00 | 0.00 | 41 | |
| 20260905023503 | 73 | 256 | 1.0 | 5.0 | 0.00 | 0.00 | 0.00 | 41 | |
| 20260905023003 | 73 | 258 | 2.0 | 5.0 | 0.00 | 0.00 | 0.00 | 40 | |
| 20260905022503 | 73 | 267 | 1.0 | 4.0 | 0.00 | 0.00 | 0.00 | 40 | |
| 20260905022003 | 73 | 257 | 1.0 | 4.0 | 0.00 | 0.00 | 0.00 | 39 | |
| 20260905021503 | 73 | 255 | 1.0 | 5.0 | 0.00 | 0.00 | 0.00 | 38 | |
| 20260905021003 | 73 | 285 | 0.0 | 5.0 | 0.00 | 0.00 | 0.00 | 37 | |
| 20260905020503 | 73 | 291 | 0.0 | 2.0 | 0.00 | 0.00 | 0.00 | 36 | |
| 20260905020003 | 73 | 207 | 0.0 | 3.0 | 0.00 | 0.00 | 0.00 | 36 | |
| 20260905015503 | 73 | 183 | 0.0 | 3.0 | 0.00 | 0.00 | 0.00 | 36 | |
| 20260905015003 | 73 | 193 | 0.0 | 2.0 | 0.00 | 0.00 | 0.00 | 35 | |
| 20260905014503 | 73 | 228 | 0.0 | 2.0 | 0.00 | 0.00 | 0.00 | 34 | |
| 20260905014003 | 74 | 236 | 0.0 | 2.0 | 0.00 | 0.00 | 0.00 | 34 | |
| 20260905013503 | 74 | 254 | 1.0 | 2.0 | 0.00 | 0.00 | 0.00 | 33 | |
| 20260905013003 | 74 | 255 | 0.0 | 2.0 | 0.00 | 0.00 | 0.00 | 33 | |
| 20260905012503 | 74 | 265 | 0.0 | 2.0 | 0.00 | 0.00 | 0.00 | 33 | |
| 20260905012003 | 74 | 280 | 0.0 | 2.0 | 0.00 | 0.00 | 0.00 | 32 | |
| 20260905011503 | 74 | 156 | 0.0 | 2.0 | 0.00 | 0.00 | 0.00 | 32 | |
| 20260905011003 | 75 | 138 | 0.0 | 2.0 | 0.00 | 0.00 | 0.00 | 31 | |
| 20260905010503 | 75 | 169 | 0.0 | 2.0 | 0.00 | 0.00 | 0.00 | 31 | |
| 20260905010003 | 75 | 254 | 0.0 | 2.0 | 0.00 | 0.00 | 0.00 | 31 | |
| 20260905005503 | 75 | 258 | 0.0 | 2.0 | 0.00 | 0.00 | 0.00 | 31 | |
| 20260905005003 | 75 | 242 | 0.0 | 2.0 | 0.00 | 0.00 | 0.00 | 30 | |
| 20260905004503 | 76 | 267 | 0.0 | 3.0 | 0.00 | 0.00 | 0.00 | 30 | |
| 20260905004003 | 76 | 260 | 0.0 | 3.0 | 0.00 | 0.00 | 0.00 | 29 | |
| 20260905003503 | 76 | 249 | 1.0 | 4.0 | 0.00 | 0.00 | 0.00 | 29 | |
| 20260905003003 | 76 | 260 | 1.0 | 4.0 | 0.00 | 0.00 | 0.00 | 28 | |
| 20260905002503 | 76 | 243 | 1.0 | 4.0 | 0.00 | 0.00 | 0.00 | 28 | |
| 20260905002003 | 76 | 253 | 1.0 | 2.0 | 0.00 | 0.00 | 0.00 | 28 | |
| 20260905001503 | 77 | 241 | 0.0 | 2.0 | 0.00 | 0.00 | 0.00 | 27 | |
| 20260905001003 | 77 | 225 | 0.0 | 2.0 | 0.00 | 0.00 | 0.00 | 27 | |
| 20260905000503 | 77 | 234 | 1.0 | 2.0 | 0.00 | 0.00 | 0.00 | 26 | |
| 20260905000003 | 77 | 243 | 1.0 | 3.0 | 0.00 | 0.00 | 0.00 | 26 | |
| 20260904235503 | 77 | 255 | 0.0 | 3.0 | 0.00 | 0.00 | 0.00 | 26 | |
| 20260904235003 | 77 | 259 | 1.0 | 3.0 | 0.00 | 0.00 | 0.00 | 26 | |
| 20260904234503 | 78 | 254 | 1.0 | 3.0 | 0.00 | 0.00 | 0.00 | 26 | |
| 20260904234003 | 78 | 258 | 1.0 | 3.0 | 0.00 | 0.00 | 0.00 | 25 | |
| 20260904233503 | 78 | 252 | 2.0 | 2.0 | 0.00 | 0.00 | 0.00 | 25 | |
| 20260904233003 | 78 | 233 | 0.0 | 4.0 | 0.00 | 0.00 | 0.00 | 26 | |
| 20260904232503 | 78 | 233 | 0.0 | 4.0 | 0.00 | 0.00 | 0.00 | 26 | |
| 20260904232003 | 78 | 267 | 2.0 | 4.0 | 0.00 | 0.00 | 0.00 | 26 | |
| 20260904231503 | 78 | 270 | 1.0 | 2.0 | 0.00 | 0.00 | 0.00 | 26 | |
| 20260904231003 | 78 | 266 | 0.0 | 2.0 | 0.00 | 0.00 | 0.00 | 26 | |
| 20260904230503 | 78 | 259 | 0.0 | 2.0 | 0.00 | 0.00 | 0.00 | 27 | |
| 20260904230003 | 78 | 226 | 0.0 | 2.0 | 0.00 | 0.00 | 0.00 | 27 | |
| 20260904225503 | 78 | 238 | 0.0 | 2.0 | 0.00 | 0.00 | 0.00 | 27 | |
| 20260904225003 | 78 | 263 | 0.0 | 2.0 | 0.00 | 0.00 | 0.00 | 27 | |
| 20260904224503 | 78 | 270 | 0.0 | 2.0 | 0.00 | 0.00 | 0.00 | 27 | |
| 20260904224003 | 78 | 270 | 0.0 | 2.0 | 0.00 | 0.00 | 0.00 | 26 | |
| 20260904223503 | 78 | 270 | 0.0 | 2.0 | 0.00 | 0.00 | 0.00 | 26 | |
| 20260904223003 | 79 | 275 | 0.0 | 2.0 | 0.00 | 0.00 | 0.00 | 25 | |
| 20260904222503 | 79 | 269 | 1.0 | 2.0 | 0.00 | 0.00 | 0.00 | 24 | |
| 20260904222003 | 80 | 248 | 1.0 | 2.0 | 0.00 | 0.00 | 0.00 | 24 | |
| 20260904221503 | 80 | 157 | 1.0 | 4.0 | 0.00 | 0.00 | 0.00 | 23 | |
| 20260904221003 | 80 | 138 | 0.0 | 4.0 | 0.00 | 0.00 | 0.00 | 23 | |
| 20260904220503 | 80 | 146 | 2.0 | 4.0 | 0.00 | 0.00 | 0.00 | 23 | |
| 20260904220003 | 80 | 162 | 2.0 | 4.0 | 0.00 | 0.00 | 0.00 | 23 | |
| 20260904215503 | 80 | 147 | 0.0 | 2.0 | 0.00 | 0.00 | 0.00 | 24 | |
| 20260904215003 | 80 | 214 | 0.0 | 2.0 | 0.00 | 0.00 | 0.00 | 24 | |
| 20260904214503 | 80 | 248 | 0.0 | 2.0 | 0.00 | 0.00 | 0.00 | 24 | |
| 20260904214003 | 80 | 258 | 0.0 | 2.0 | 0.00 | 0.00 | 0.00 | 23 | |
| 20260904213503 | 80 | 229 | 0.0 | 2.0 | 0.00 | 0.00 | 0.00 | 23 | |
| 20260904213003 | 80 | 234 | 0.0 | 3.0 | 0.00 | 0.00 | 0.00 | 23 | |
| 20260904212503 | 80 | 242 | 1.0 | 3.0 | 0.00 | 0.00 | 0.00 | 23 | |
| 20260904212003 | 80 | 217 | 1.0 | 3.0 | 0.00 | 0.00 | 0.00 | 23 | |
| 20260904211503 | 80 | 149 | 0.0 | 3.0 | 0.00 | 0.00 | 0.00 | 23 | |
| 20260904211003 | 80 | 109 | 0.0 | 3.0 | 0.00 | 0.00 | 0.00 | 24 | |
| 20260904210503 | 80 | 115 | 0.0 | 4.0 | 0.00 | 0.00 | 0.00 | 25 | |
| 20260904210003 | 80 | 169 | 0.0 | 4.0 | 0.00 | 0.00 | 0.00 | 25 | |
| 20260904205503 | 79 | 174 | 0.0 | 2.0 | 0.00 | 0.00 | 0.00 | 26 | |
| 20260904205003 | 79 | 154 | 0.0 | 2.0 | 0.00 | 0.00 | 0.00 | 27 | |
| 20260904204503 | 78 | 158 | 0.0 | 1.0 | 0.00 | 0.00 | 0.00 | 29 | |
| 20260904204003 | 78 | 166 | 0.0 | 2.0 | 0.00 | 0.00 | 0.00 | 30 | |
| 20260904203503 | 78 | 164 | 0.0 | 2.0 | 0.00 | 0.00 | 0.00 | 31 | |
| 20260904203003 | 78 | 165 | 0.0 | 2.0 | 0.00 | 0.00 | 0.00 | 32 | |
| 20260904202503 | 78 | 152 | 0.0 | 2.0 | 0.00 | 0.00 | 0.00 | 32 | |
| 20260904202003 | 78 | 135 | 0.0 | 1.0 | 0.00 | 0.00 | 0.00 | 33 | |
| 20260904201503 | 78 | 0 | 0.0 | 0.0 | 0.00 | 0.00 | 0.00 | 34 | |
| 20260904201003 | 78 | 0 | 0.0 | 0.0 | 0.00 | 0.00 | 0.00 | 34 | |
| 20260904200503 | 78 | 135 | 0.0 | 2.0 | 0.00 | 0.00 | 0.00 | 34 |